Tracking 29494 objects as of 8-Sep-2024
HD Live streaming from Space Station
objects crossing your sky now

STARLINK-4104

Track STARLINK-4104 now!
10-day predictions
STARLINK-4104 is classified as:


NORAD ID: 53163
Int'l Code: 2022-083AH
Perigee: 545.9 km
Apogee: 547.9 km
Inclination: 53.2 °
Period: 95.4 minutes
Semi major axis: 6917 km
RCS: Unknown
Launch date: July 17, 2022
Source: United States (US)
Launch site: AIR FORCE EASTERN TEST RANGE (AFETR)
Your satellite tracking list
Your tracking list is empty




NASA's NSSDC Master Catalog

Two Line Element Set (TLE):
1 53163U 22083AH  24251.56845887  .00000581  00000-0  54595-4 0  9994
2 53163  53.2174 104.8770 0001513 108.6648 251.4508 15.08834526118616
Source of the keplerian elements: AFSPC